Theta_e
323 323 322 322 322 322 321 320 319 321 322 324 324 323 322 321 320 321 321 322 322 321 320 320 320 320 320 320 321 319 320 320 318 318 319 319 318 318 317 316 319 316
321 322 322 322 320 319 318 318 319 319 319 322 322 321 320 320 319 320 321 320 319 319 318 319 319 319 319 319 320 319 317 318 316 316 318 318 317 317 317 318 317 317
323 323 323 322 322 321 320 318 316 317 319 320 321 321 320 320 320 320 320 320 320 318 318 318 319 318 317 318 319 319 318 317 315 316 316 315 316 315 316 315 315 317
323 324 323 320 321 322 320 318 315 314 317 319 321 321 321 320 320 320 320 318 319 319 319 319 319 318 317 317 318 316 316 314 314 315 313 314 315 314 315 315 315 314
321 321 323 322 323 323 318 316 316 315 316 320 320 320 320 320 320 320 320 319 319 319 319 319 318 318 317 317 318 316 316 313 314 315 313 313 314 315 315 316 315 314
319 320 321 320 321 321 319 317 317 315 316 317 320 320 322 321 320 319 320 319 319 318 319 319 318 318 317 316 317 317 316 314 315 315 313 312 312 314 312 315 314 313
323 322 321 321 320 320 319 319 318 316 316 318 317 321 321 321 319 319 319 319 318 318 318 319 318 318 318 317 317 316 317 316 315 314 312 313 314 313 313 314 311 311
324 324 323 323 322 321 320 319 319 318 317 316 316 318 320 319 318 320 320 318 317 317 318 317 317 317 317 317 316 317 317 317 317 314 313 313 314 312 313 313 315 311
325 324 323 325 323 321 320 319 320 320 318 318 317 317 318 320 319 318 317 317 316 316 316 316 316 316 317 316 316 317 317 318 318 316 315 314 314 312 310 312 313 312
324 324 324 324 323 323 321 321 321 320 319 318 317 317 316 318 319 318 317 316 316 315 315 315 316 317 317 316 315 315 315 316 318 317 317 316 314 313 311 312 312 312
323 323 323 323 322 323 323 323 322 322 321 319 319 318 318 318 318 318 317 316 317 316 316 316 317 318 317 316 317 317 316 316 315 316 318 317 317 316 314 314 314 313
320 322 322 322 322 322 322 322 322 322 321 321 318 318 319 319 318 318 317 317 318 318 318 319 319 320 319 319 319 319 319 318 317 316 316 316 317 316 315 316 316 314
318 319 321 322 322 322 323 322 322 322 322 320 320 320 319 319 319 319 320 319 319 320 320 320 320 320 320 321 320 320 320 319 319 318 317 317 317 316 316 316 316 316
319 320 320 321 322 322 322 322 322 322 321 321 320 320 320 319 319 320 322 322 322 321 321 321 317 316 317 318 318 320 321 321 321 320 318 318 319 317 317 316 316 316
320 320 321 321 320 321 321 321 321 321 321 321 321 321 321 321 321 321 321 320 320 321 319 316 315 315 316 316 316 317 319 319 320 319 318 318 319 320 319 318 317 317
320 321 320 321 321 322 321 321 321 321 321 321 319 319 321 322 320 320 320 319 318 318 318 316 315 315 311 307 306 315 318 317 318 319 319 319 319 319 320 320 319 319
320 320 321 320 321 321 321 319 318 318 318 319 319 319 319 320 321 319 319 318 316 315 314 314 316 314 305 301 300 300 309 317 318 320 321 320 320 320 320 321 322 320
319 319 319 319 320 320 319 319 319 318 318 318 317 317 317 318 319 319 319 319 318 318 318 318 319 306 300 299 299 298 299 312 317 318 319 320 320 319 319 319 319 320
318 318 318 318 318 319 319 319 318 317 318 318 318 318 319 318 318 319 320 320 320 318 317 319 319 300 299 298 297 294 293 299 312 314 315 317 318 318 317 318 318 318
316 318 318 318 318 319 319 318 318 318 319 319 319 319 318 318 319 320 320 320 319 319 319 319 319 300 296 295 294 293 293 296 312 314 315 314 313 314 316 316 316 315
313 316 317 317 318 318 318 318 319 319 318 318 318 317 318 318 318 319 319 319 319 319 318 318 318 296 294 293 294 295 293 299 315 312 311 311 310 310 310 311 312 313
307 311 315 316 315 316 316 317 317 317 317 318 318 318 318 318 319 319 318 318 318 319 318 317 314 293 294 294 294 294 293 311 313 313 311 310 309 308 308 309 309 310
305 306 308 312 313 314 315 316 316 316 317 318 317 317 316 316 318 317 318 318 317 318 318 317 310 297 293 293 293 292 297 312 310 309 308 307 306 306 307 308 308 308
306 306 307 308 309 311 313 315 317 317 317 315 315 314 314 315 316 316 317 317 316 317 317 314 310 298 292 292 292 291 302 312 310 309 307 306 304 304 305 305 301 298
305 306 307 307 307 308 310 312 313 313 314 313 314 314 314 312 311 312 312 312 312 313 307 311 309 300 291 292 292 292 304 313 310 309 307 306 304 303 303 303 301 297
305 305 308 308 309 308 306 307 309 310 310 310 311 312 312 312 310 310 308 308 308 308 308 310 309 307 300 291 293 293 298 311 310 308 306 305 305 303 302 301 301 299
Wind_Speed
4 6 7 6 4 4 4 4 2 2 2 2 3 3 3 3 3 3 3 2 3 4 3 3 3 3 3 3 3 4 5 5 5 4 5 5 5 6 5 5 5 5
7 6 5 5 6 5 4 4 2 1 1 2 2 3 3 4 3 2 2 3 4 4 3 3 3 3 3 3 3 5 5 5 5 2 5 6 5 5 5 6 6 5
9 7 5 7 6 6 5 4 1 2 1 2 3 2 3 3 4 3 2 2 3 4 4 3 3 4 4 4 4 5 5 5 5 3 4 5 3 4 5 5 5 5
8 6 3 6 9 6 4 3 2 1 1 3 4 3 3 3 4 3 3 3 3 3 3 4 4 4 4 5 5 5 5 5 4 4 5 3 3 4 4 4 5 5
12 7 3 1 6 9 7 6 6 4 3 3 4 5 4 4 4 4 3 3 2 3 3 4 4 4 4 4 4 5 5 5 4 3 4 4 3 3 3 4 5 5
10 8 4 3 2 5 6 6 5 4 4 4 4 5 5 5 4 4 4 4 3 3 3 3 4 4 3 4 3 4 4 5 4 4 6 5 4 3 2 2 4 4
10 9 8 5 3 3 3 3 4 4 4 3 2 4 6 5 5 4 4 4 4 3 3 3 3 3 3 3 3 3 3 4 4 4 5 5 4 4 3 3 3 4
10 9 8 6 6 3 3 3 4 5 5 5 5 3 3 6 6 4 4 4 3 3 3 3 3 4 3 2 2 3 3 1 2 3 3 4 3 4 4 2 3 4
8 9 8 7 6 5 5 5 5 5 5 6 5 4 2 2 5 6 5 5 4 4 4 3 3 3 3 2 2 1 1 2 2 2 3 4 4 4 5 4 3 4
7 7 7 6 6 5 6 6 5 5 6 5 5 5 4 2 2 6 6 5 5 5 4 4 3 3 3 2 2 2 2 2 2 3 3 4 4 5 5 5 6 5
6 6 7 7 6 5 5 6 6 6 6 7 6 5 6 5 3 4 6 7 6 6 5 5 4 4 4 3 3 2 0 2 3 4 3 4 4 4 4 5 6 6
7 6 7 6 6 5 5 5 5 6 6 6 7 6 6 7 7 5 5 6 7 7 6 5 5 4 3 2 2 1 0 1 3 4 5 5 5 5 5 5 6 7
7 7 6 6 6 6 5 6 6 6 7 7 7 8 8 8 8 8 6 6 6 6 6 6 5 5 4 4 5 5 4 4 4 4 5 5 6 6 6 6 6 7
6 6 6 6 5 4 5 6 6 6 7 7 7 8 8 9 9 9 7 6 6 6 6 5 5 4 4 5 6 7 7 6 5 5 6 6 6 6 6 7 7 7
5 5 5 5 6 6 7 5 2 1 4 6 6 6 5 7 8 9 8 6 6 5 5 7 7 6 5 4 5 6 6 7 7 7 7 7 7 6 6 6 6 7
6 5 5 6 8 7 6 4 5 6 5 6 7 7 7 7 8 8 8 6 5 5 4 5 4 1 4 4 4 6 6 7 6 6 7 7 7 7 6 6 6 5
4 5 6 8 7 5 4 6 8 8 7 5 3 5 7 7 5 5 6 7 9 9 9 8 7 9 15 9 8 13 8 6 7 7 6 6 6 6 6 6 4 4
4 4 6 8 7 8 7 9 9 9 10 12 10 12 13 13 13 10 9 9 10 11 10 9 8 11 13 10 12 12 7 5 4 4 4 4 4 5 4 4 5 5
5 7 8 9 10 8 8 10 10 12 12 12 12 11 8 9 11 10 9 8 9 11 11 9 8 12 14 13 12 8 6 4 3 3 4 3 2 2 3 3 3 3
3 6 7 9 9 9 10 11 11 11 9 8 7 8 9 9 9 9 8 8 9 10 8 8 7 11 12 11 9 6 5 4 2 1 1 2 3 3 3 3 3 3
3 5 7 8 8 9 10 10 8 7 8 8 9 11 11 10 10 9 7 8 8 8 7 7 6 11 10 9 7 6 5 4 2 2 2 2 2 3 3 3 3 2
3 4 6 6 5 5 7 8 6 7 10 9 7 7 6 5 5 5 6 7 8 8 8 8 5 10 11 10 9 7 7 4 4 3 3 3 3 3 2 2 2 3
3 3 4 5 6 6 7 8 8 8 7 3 3 6 6 7 7 7 7 8 8 8 9 7 6 7 10 11 9 9 7 4 4 4 4 3 2 1 2 3 3 3
5 3 3 4 4 7 9 8 6 6 7 7 11 6 3 5 4 5 6 7 9 10 9 9 8 7 10 10 11 11 8 6 5 5 5 4 4 3 3 5 7 10
9 7 4 3 4 5 6 7 6 6 6 6 7 9 10 7 5 4 4 2 2 3 9 10 8 6 9 11 11 11 7 5 5 5 5 4 5 5 5 6 6 9
8 9 7 5 5 2 2 4 3 4 6 7 4 5 6 6 6 6 7 6 6 5 5 7 8 6 7 11 12 11 9 6 5 5 5 5 4 5 6 5 6 7
Wind_Direction
100 121 131 132 115 96 101 106 85 95 107 119 122 104 96 89 70 59 64 72 67 78 71 73 82 90 88 88 82 90 90 91 95 104 112 113 117 123 121 125 115 117
122 113 98 105 104 92 81 54 23 114 139 114 90 104 96 102 78 71 69 81 88 76 70 67 64 71 78 91 85 93 96 94 96 85 108 111 114 113 113 116 116 118
89 75 81 90 83 93 105 102 52 317 130 114 109 111 106 99 101 84 77 69 88 92 84 87 84 75 76 78 73 78 85 87 87 76 90 97 97 113 114 118 120 114
72 90 172 128 123 118 103 98 137 211 191 157 137 130 126 119 115 106 98 88 97 96 95 90 87 90 90 92 94 89 85 80 77 79 85 79 78 99 105 111 119 118
145 162 185 212 145 139 143 170 172 175 195 159 137 147 150 148 142 136 134 126 126 114 105 99 92 87 90 90 97 105 100 99 91 102 102 94 77 88 90 109 116 116
155 145 157 148 272 125 145 165 165 165 176 178 181 157 158 157 158 156 159 155 150 142 128 109 100 90 80 85 91 99 117 121 122 133 129 127 126 120 122 119 125 126
159 157 168 153 207 119 146 145 154 175 181 183 186 189 158 161 166 167 165 157 148 139 127 113 104 96 81 86 98 104 109 117 137 148 146 142 144 145 147 154 145 135
169 168 171 164 165 165 174 172 172 190 180 174 192 218 189 161 164 157 153 142 126 122 118 114 112 104 106 107 118 130 123 123 149 161 159 146 159 161 158 161 161 156
173 172 179 168 167 172 182 182 181 186 198 191 175 168 244 216 160 153 149 139 128 119 118 116 116 115 113 116 102 81 161 164 174 192 186 176 180 177 177 168 180 179
186 171 167 173 185 196 187 183 179 183 188 206 181 155 170 220 191 157 143 139 133 129 126 123 126 124 110 88 70 50 342 313 255 212 210 215 209 196 188 188 195 193
201 183 178 182 194 208 205 182 186 186 187 192 185 176 160 157 168 157 149 147 143 141 132 124 115 102 97 104 115 113 44 303 291 282 262 236 228 225 211 210 203 209
203 208 198 190 197 206 195 178 187 192 187 186 185 175 162 157 156 164 163 149 141 135 130 122 115 104 88 71 73 88 95 246 251 253 256 254 238 231 225 220 221 219
203 214 222 203 194 208 206 201 192 187 183 187 186 175 170 162 157 155 156 147 135 128 122 104 82 67 52 29 4 357 332 299 263 241 235 233 238 233 231 231 232 230
216 215 231 232 225 213 213 218 207 178 185 179 179 183 178 167 158 149 138 124 120 114 108 109 91 75 50 25 0 341 320 303 286 259 253 242 231 226 222 225 227 230
218 215 226 240 230 230 221 195 157 159 189 186 180 181 167 161 143 132 128 105 80 69 66 61 50 28 3 7 348 311 302 296 279 268 260 260 254 242 226 226 230 228
222 201 201 211 219 217 209 165 153 170 187 187 183 175 167 147 139 136 128 124 103 109 98 86 97 58 308 296 269 277 280 269 264 261 256 254 257 260 254 242 244 245
219 204 201 213 214 215 178 171 165 163 166 183 179 138 140 149 154 179 182 155 209 197 168 161 180 180 202 207 233 249 253 265 263 262 254 253 255 261 267 275 268 264
227 204 210 224 226 215 184 185 169 161 174 185 183 178 175 173 182 203 205 198 204 193 180 179 200 162 161 189 225 239 232 247 260 267 267 261 263 266 274 281 286 287
232 226 224 226 228 218 199 192 171 176 190 195 192 198 189 183 192 196 207 202 196 194 190 181 186 159 170 191 214 220 219 220 251 257 255 263 283 301 311 310 309 303
228 230 231 230 226 221 208 195 187 192 196 195 191 197 202 199 196 197 198 195 192 193 179 170 171 163 167 182 197 191 184 193 229 224 344 9 9 6 353 344 337 322
233 219 232 230 224 221 212 204 198 199 204 199 193 198 202 202 199 200 194 185 183 184 174 166 158 152 161 168 156 147 150 199 154 155 110 67 43 29 12 6 356 343
310 246 225 218 213 214 220 215 210 210 212 210 204 206 208 203 203 202 183 177 174 171 169 165 135 145 149 148 136 134 167 185 141 108 98 83 58 32 19 23 18 1
334 288 249 236 224 223 222 220 214 218 217 181 230 239 215 204 200 190 184 178 171 172 172 152 128 149 147 138 137 154 193 141 130 126 116 109 86 83 78 55 36 22
350 319 272 219 222 221 228 228 215 207 206 175 200 196 260 252 220 173 172 178 178 177 171 149 146 144 146 141 154 183 202 148 152 139 130 127 120 94 87 77 54 33
331 336 327 273 202 224 234 236 218 212 198 183 195 185 191 186 187 178 163 140 133 144 146 141 136 144 151 153 168 183 187 150 150 140 127 121 115 96 80 84 75 53
327 327 334 327 305 158 229 239 219 190 179 183 183 184 178 175 170 165 155 152 142 150 148 137 132 137 156 163 166 169 176 159 157 152 139 130 115 118 108 93 87 82